Hourly Data Report for October 19, 2016

All times are specified in Local Standard Time (LST). Add 1 hour to adjust for Daylight Saving Time where and when it is observed.

GRISE FIORD CLIMATE
NUNAVUT

76°25'22.040" N
82°54'08.020" W
44.50 m
2402351
71971
NGC

Download Data

Hourly Data (October 2016)
Hourly Data Report for October 19, 2016
Temp Definition
°C
Dew Point Temp Definition
°C
Rel Hum Definition
%
Wind Dir Definition
10's deg

Wind Spd Definition
km/h
Visibility Definition
km
Stn Press Definition
kPa
Hmdx Definition


Wind Chill Definition


Weather Definition


TIME
00:00 -15.7 -17.9 83 4 7   101.29   -21 LegendNANA
01:00 -14.2 -16.5 82 4 8   101.28   -19 LegendNANA
02:00 -15.9 -17.6 86 8 4   101.26   -19 LegendNANA
03:00 -15.3 -16.6 89 36 1   101.26   -16 LegendNANA
04:00 -16.1 -18.2 84 13 2   101.23   -18 LegendNANA
05:00 -14.8 -16.2 89 7 1   101.18   -16 LegendNANA
06:00 -15.5 -17.1 88 12 5   101.14   -19 LegendNANA
07:00 -14.9 -16.3 89 9 2   101.10   -16 LegendNANA
08:00 -15.9 -17.8 85   0   101.05     LegendNANA
09:00 -15.0 -16.6 87 12 6   101.01   -19 LegendNANA
10:00 -15.0 -16.1 91 4 5   100.98   -19 LegendNANA
11:00 -15.0 -17.4 82 12 4   100.92   -18 LegendNANA
12:00 -13.6 -16.9 76 7 7   100.86   -18 LegendNANA
13:00 -14.5 -16.9 82 5 3   100.78   -17 LegendNANA
14:00 -15.1 -17.8 80 7 1   100.76   -16 LegendNANA
15:00 -15.2 -17.6 82 4 1   100.72   -16 LegendNANA
16:00 -15.5 -17.1 88 5 3   100.67   -18 LegendNANA
17:00 -14.3 -16.3 84 10 2   100.63   -16 LegendNANA
18:00 -14.3 -17.1 79 13 3   100.60   -16 LegendNANA
19:00 -12.9 -17.0 71 17 1   100.55   -14 LegendNANA
20:00 -13.9 -18.5 68 7 12   100.50   -21 LegendNANA
21:00 -13.9 -18.3 69 6 1   100.45   -15 LegendNANA
22:00 -15.3 -19.5 71 5 8   100.43   -21 LegendNANA
23:00 -15.4 -19.8 69 5 11   100.40   -22 LegendNANA

Notes on Data Quality.

Legend

  • E = Estimated
  • M = Missing
  • NA = Not Available
  • ‡ = Partner data that is not subject to review by the National Climate Archives
Date modified: